Weather History for Windom, MN

Change the Weather History Date:

Saturday, May 25, 2013

  Actual Average Record
Temperature  
Mean Temperature 54 °F -  
Max Temperature 59 °F 74 °F 98 °F (1967)
Min Temperature 50 °F 49 °F 35 °F (1954)
Degree Days  
Heating Degree Days 10    
Growing Degree Days 4 (Base 50)    
Moisture  
Dew Point 50 °F    
Average Humidity 86    
Maximum Humidity 94    
Minimum Humidity 67    
Precipitation  
Precipitation 0.00 in - - ()
Sea Level Pressure  
Sea Level Pressure 30.14 in    
Wind  
Wind Speed 15 mph (ESE)    
Max Wind Speed 23 mph    
Max Gust Speed 29 mph    
Visibility 7 miles    
Events Rain    
Averages and records for this station are not official NWS values.
T = Trace of Precipitation, MM = Missing Value Source: NWS Daily Summary

Daily Weather History Graph

Daily Weather History Graph

Search for Another Location

Airport:

Trip Planner

Search our weather history database for the weather conditions in past years. The results will help you decide how hot, cold, wet, or windy it might be!

Date:

Astronomy

May. 25, 2013 Rise Set
Actual Time 5:45 AM CDT 8:50 PM CDT
Civil Twilight 5:10 AM CDT 9:24 PM CDT
Nautical Twilight 4:26 AM CDT 10:09 PM CDT
Astronomical Twilight 3:33 AM CDT 11:02 PM CDT
Moon 9:38 PM CDT (5/25) 6:13 AM CDT (5/25)
Length of Visible Light 16h 14m
Length of Day
15h 05m
Full, 100% of the Moon is Illuminated
May 25
Full
May 31
Last Quarter
Jun 8
New
Jun 16
First Quarter
Jun 23
Full

Hourly Weather History & Observations

Time (CDT) Temp. Dew Point Humidity Pressure Visibility Wind Dir Wind Speed Gust Speed Precip Events Conditions
12:12 AM 59.0 °F 51.8 °F 77% 30.16 in 10.0 mi SE 13.8 mph - N/A   Overcast
12:32 AM 59.0 °F 50.0 °F 72% 30.16 in 10.0 mi SE 13.8 mph 20.7 mph N/A   Overcast
12:53 AM 59.0 °F 50.0 °F 72% 30.15 in 10.0 mi SE 12.7 mph - N/A   Overcast
1:12 AM 59.0 °F 50.0 °F 72% 30.14 in 10.0 mi SE 13.8 mph 19.6 mph N/A   Overcast
1:32 AM 59.0 °F 48.2 °F 67% 30.12 in 10.0 mi SE 12.7 mph - N/A   Overcast
1:52 AM 57.2 °F 50.0 °F 77% 30.13 in 10.0 mi SE 10.4 mph - N/A   Overcast
2:12 AM 57.2 °F 50.0 °F 77% 30.14 in 10.0 mi ESE 11.5 mph - N/A   Overcast
2:32 AM 57.2 °F 48.2 °F 72% 30.14 in 10.0 mi ESE 11.5 mph - N/A   Overcast
2:52 AM 57.2 °F 50.0 °F 77% 30.13 in 10.0 mi ESE 10.4 mph 18.4 mph N/A   Overcast
3:13 AM 57.2 °F 50.0 °F 77% 30.13 in 10.0 mi ESE 12.7 mph - N/A   Overcast
3:32 AM 57.2 °F 48.2 °F 72% 30.13 in 10.0 mi ESE 12.7 mph - N/A   Overcast
3:52 AM 57.2 °F 48.2 °F 72% 30.14 in 10.0 mi ESE 11.5 mph - N/A   Overcast
4:13 AM 55.4 °F 48.2 °F 77% 30.13 in 10.0 mi ESE 12.7 mph 18.4 mph N/A   Overcast
4:32 AM 57.2 °F 48.2 °F 72% 30.11 in 10.0 mi ESE 16.1 mph - N/A   Overcast
4:52 AM 55.4 °F 48.2 °F 77% 30.10 in 10.0 mi ESE 15.0 mph - N/A   Mostly Cloudy
5:13 AM 55.4 °F 48.2 °F 77% 30.11 in 10.0 mi ESE 13.8 mph - N/A   Overcast
5:32 AM 55.4 °F 48.2 °F 77% 30.12 in 10.0 mi ESE 12.7 mph 18.4 mph N/A   Overcast
5:52 AM 55.4 °F 48.2 °F 77% 30.13 in 10.0 mi ESE 12.7 mph 18.4 mph N/A   Overcast
6:13 AM 55.4 °F 48.2 °F 77% 30.13 in 10.0 mi ESE 13.8 mph - N/A   Overcast
6:32 AM 55.4 °F 48.2 °F 77% 30.13 in 10.0 mi ESE 16.1 mph - N/A   Overcast
6:52 AM 55.4 °F 48.2 °F 77% 30.12 in 10.0 mi ESE 13.8 mph - N/A   Overcast
7:13 AM 53.6 °F 48.2 °F 82% 30.12 in 10.0 mi ESE 17.3 mph 23.0 mph N/A   Light Drizzle
7:32 AM 53.6 °F 48.2 °F 82% 30.12 in 10.0 mi ESE 17.3 mph 23.0 mph N/A   Overcast
7:52 AM 53.6 °F 48.2 °F 82% 30.14 in 10.0 mi ESE 18.4 mph 23.0 mph N/A   Overcast
8:13 AM 53.6 °F 48.2 °F 82% 30.15 in 10.0 mi ESE 18.4 mph 24.2 mph N/A   Overcast
8:32 AM 53.6 °F 48.2 °F 82% 30.14 in 10.0 mi ESE 18.4 mph 24.2 mph N/A   Overcast
8:52 AM 53.6 °F 50.0 °F 88% 30.14 in 4.0 mi ESE 12.7 mph 19.6 mph N/A   Overcast
9:13 AM 51.8 °F 50.0 °F 94% 30.15 in 4.0 mi ESE 16.1 mph 23.0 mph N/A   Overcast
9:32 AM 51.8 °F 50.0 °F 94% 30.15 in 7.0 mi ESE 16.1 mph 23.0 mph N/A   Overcast
9:52 AM 51.8 °F 50.0 °F 94% 30.15 in 4.0 mi ESE 18.4 mph 24.2 mph N/A   Overcast
10:13 AM 51.8 °F 50.0 °F 94% 30.15 in 3.0 mi ESE 17.3 mph 23.0 mph N/A   Overcast
10:32 AM 51.8 °F 50.0 °F 94% 30.15 in 2.5 mi ESE 18.4 mph 25.3 mph N/A Rain Light Rain
10:52 AM 51.8 °F 50.0 °F 94% 30.16 in 2.0 mi ESE 16.1 mph 21.9 mph N/A Rain Light Rain
11:13 AM 51.8 °F 50.0 °F 94% 30.16 in 1.5 mi SE 17.3 mph - N/A Rain Rain
11:32 AM 51.8 °F 50.0 °F 94% 30.15 in 1.5 mi ESE 19.6 mph 27.6 mph N/A Rain Light Rain
11:52 AM 51.8 °F 50.0 °F 94% 30.15 in 2.0 mi ESE 17.3 mph 26.5 mph N/A Rain Light Rain
12:13 PM 53.6 °F 51.8 °F 94% 30.15 in 5.0 mi ESE 17.3 mph 21.9 mph N/A   Overcast
12:32 PM 53.6 °F 51.8 °F 94% 30.15 in 5.0 mi ESE 18.4 mph 21.9 mph N/A   Overcast
12:52 PM 53.6 °F 51.8 °F 94% 30.15 in 7.0 mi ESE 15.0 mph 23.0 mph N/A   Overcast
1:13 PM 53.6 °F 51.8 °F 94% 30.15 in 10.0 mi ESE 15.0 mph 19.6 mph N/A   Overcast
1:32 PM 53.6 °F 51.8 °F 94% 30.15 in 10.0 mi ESE 16.1 mph - N/A   Overcast
1:52 PM 55.4 °F 51.8 °F 88% 30.15 in 10.0 mi ESE 11.5 mph 20.7 mph N/A   Overcast
2:12 PM 55.4 °F 51.8 °F 88% 30.15 in 10.0 mi ESE 12.7 mph - N/A   Overcast
2:32 PM 55.4 °F 51.8 °F 88% 30.15 in 10.0 mi ESE 17.3 mph 21.9 mph N/A   Overcast
2:53 PM 57.2 °F 53.6 °F 88% 30.14 in 10.0 mi ESE 17.3 mph 23.0 mph N/A   Overcast
3:12 PM 55.4 °F 51.8 °F 88% 30.14 in 10.0 mi ESE 18.4 mph 26.5 mph N/A   Overcast
3:32 PM 55.4 °F 51.8 °F 88% 30.14 in 10.0 mi ESE 20.7 mph - N/A   Overcast
3:53 PM 55.4 °F 51.8 °F 88% 30.14 in 10.0 mi ESE 19.6 mph 26.5 mph N/A   Overcast
4:12 PM 53.6 °F 51.8 °F 94% 30.14 in 10.0 mi ESE 19.6 mph 27.6 mph N/A   Overcast
4:33 PM 53.6 °F 51.8 °F 94% 30.14 in 10.0 mi ESE 21.9 mph 27.6 mph N/A   Overcast
4:53 PM 53.6 °F 51.8 °F 94% 30.14 in 10.0 mi SE 19.6 mph 27.6 mph N/A   Overcast
5:12 PM 53.6 °F 51.8 °F 94% 30.14 in 10.0 mi ESE 18.4 mph 27.6 mph N/A   Overcast
5:33 PM 53.6 °F 50.0 °F 88% 30.14 in 10.0 mi ESE 21.9 mph 26.5 mph N/A   Overcast
5:52 PM 53.6 °F 50.0 °F 88% 30.14 in 10.0 mi ESE 19.6 mph 27.6 mph N/A   Overcast
6:12 PM 53.6 °F 50.0 °F 88% 30.13 in 10.0 mi ESE 19.6 mph 27.6 mph N/A   Overcast
6:33 PM 51.8 °F 50.0 °F 94% 30.14 in 5.0 mi ESE 18.4 mph 21.9 mph N/A   Overcast
6:52 PM 51.8 °F 50.0 °F 94% 30.15 in 4.0 mi ESE 20.7 mph 24.2 mph N/A   Overcast
7:12 PM 51.8 °F 48.2 °F 88% 30.16 in 4.0 mi ESE 17.3 mph 26.5 mph N/A   Overcast
7:33 PM 51.8 °F 48.2 °F 88% 30.15 in 1.8 mi ESE 17.3 mph 21.9 mph N/A Rain Light Rain
7:52 PM 51.8 °F 48.2 °F 88% 30.15 in 2.5 mi ESE 18.4 mph 26.5 mph N/A Rain Light Rain
8:12 PM 51.8 °F 48.2 °F 88% 30.15 in 4.0 mi ESE 16.1 mph 24.2 mph N/A Rain Light Rain
8:33 PM 51.8 °F 48.2 °F 88% 30.15 in 5.0 mi ESE 17.3 mph 24.2 mph N/A   Overcast
8:52 PM 50.0 °F 48.2 °F 94% 30.14 in 5.0 mi ESE 20.7 mph 25.3 mph N/A   Overcast
9:12 PM 50.0 °F 48.2 °F 94% 30.14 in 5.0 mi ESE 19.6 mph 26.5 mph N/A   Overcast
9:33 PM 50.0 °F 48.2 °F 94% 30.14 in 4.0 mi ESE 15.0 mph 26.5 mph N/A   Overcast
9:52 PM 50.0 °F 48.2 °F 94% 30.15 in 3.0 mi ESE 16.1 mph 23.0 mph N/A Rain Light Rain
10:12 PM 50.0 °F 48.2 °F 94% 30.17 in 3.0 mi ESE 19.6 mph 26.5 mph N/A Rain Light Rain
10:33 PM 50.0 °F 48.2 °F 94% 30.16 in 3.0 mi ESE 17.3 mph 25.3 mph N/A Rain Light Rain
10:52 PM 50.0 °F 48.2 °F 94% 30.15 in 4.0 mi ESE 23.0 mph 27.6 mph N/A Rain Light Rain
11:12 PM 50.0 °F 48.2 °F 94% 30.15 in 4.0 mi ESE 16.1 mph 23.0 mph N/A   Light Drizzle
11:33 PM 50.0 °F 48.2 °F 94% 30.14 in 5.0 mi ESE 19.6 mph 28.8 mph N/A   Overcast
11:52 PM 50.0 °F 48.2 °F 94% 30.12 in 4.0 mi ESE 17.3 mph 25.3 mph N/A   Overcast